Regional Weather Roundup
Issued by NWS

Home | Current Version | Previous Version | Text Only | Print | Product List | Glossary On
Versions: 1 2 3 4 5 6 7 8 9 10 11 12 13 14 15 16 17 18 19 20 21 22 23 24 25 26 27 28 29 30 31 32 33 34 35 36 37 38 39 40 41 42 43 44 45 46 47 48 49 50
000
ASUS43 KDMX 270407
RWRIA

WEATHER ROUNDUP FOR IOWA
NATIONAL WEATHER SERVICE DES MOINES IA
1100 PM CDT SUN APR 26 2015

NOTE: "FAIR" INDICATES FEW OR NO CLOUDS BELOW 12,000 FEET WITH NO
SIGNIFICANT WEATHER AND/OR OBSTRUCTIONS TO VISIBILITY.

* - THESE STATIONS ARE NOT NWS STATIONS...THUS NOT UNDER NWS
QUALITY CONTROL.  THEY ALSO DO NOT REPORT WEATHER SUCH
AS PRECIPITATION OR FOG.

IAZ001>003-012>014-020>022-031>034-043>046-270500-
   NORTHWEST IOWA

CITY           SKY/WX    TMP DP  RH WIND       PRES   REMARKS
CARROLL *      PTCLDY    45  34  65 CALM      30.09R
CHEROKEE *     CLEAR     46  32  57 CALM      30.10R
DENISON *      CLEAR     46  34  61 CALM      30.08R
LE MARS *      CLEAR     48  32  53 N5        30.10R
ORANGE CITY *  CLEAR     50  28  43 E5        30.10R
SHELDON *      PTCLDY    45  28  53 NE7       30.09R
SIOUX CITY     CLEAR     51  32  48 E6        30.09R
SPENCER        CLEAR     44  32  62 E9        30.10R
STORM LAKE *   CLEAR     46  30  53 E8        30.11R
$$

IAZ055>058-069>071-079>083-090>094-270500-
   SOUTHWEST IOWA

CITY           SKY/WX    TMP DP  RH WIND       PRES   REMARKS
ATLANTIC *     CLEAR     43  36  75 N5        30.10R
AUDUBON *      CLEAR     39  34  81 CALM      30.11R
CLARINDA *     CLEAR     43  37  81 CALM      30.10R
COUNCIL BLFS * CLEAR     50  36  57 SE6       30.10R
CRESTON *      CLEAR     45  32  61 E5        30.09R
HARLAN  *      CLEAR     46  37  71 CALM      30.13R
LAMONI         CLEAR     49  30  48 NE5       30.08R
RED OAK *      CLEAR     46  34  61 CALM      30.09R
SHENANDOAH *   CLEAR     43  36  75 CALM      30.09S
$$

IAZ047>049-059>061-072>074-084-270500-
   CENTRAL IOWA

CITY           SKY/WX    TMP DP  RH WIND       PRES   REMARKS
AMES           CLEAR     46  31  55 CALM      30.08R
ANKENY *       CLEAR     41  34  75 CALM      30.08R
CHARITON *     CLEAR     48  32  53 CALM      30.08R
DES MOINES     CLEAR     53  25  33 SE5       30.09R
GRINNELL*      CLEAR     48  30  49 NE3       30.08R
KNOXVILLE *    CLEAR     50  32  50 CALM      30.07R
MARSHALLTOWN   CLEAR     46  29  51 N7        30.08R
PELLA *        CLEAR     48  37  66 CALM      30.09R
PERRY *          N/A     48  32  53 E3        30.09R
$$

IAZ004>006-015-016-023>025-035-036-270500-
   NORTH CENTRAL IOWA

CITY           SKY/WX    TMP DP  RH WIND       PRES   REMARKS
ALGONA *       CLEAR     50  32  50 E6        30.11R
CLARION *      CLEAR     43  30  61 NE6       30.10R
ESTHERVILLE    CLEAR     41  27  57 NE8       30.11R
FORT DODGE *   CLEAR     45  30  57 NE7       30.10R
MASON CITY     CLEAR     41  32  70 N5        30.11S
FOREST CITY *  CLEAR     41  32  70 N3        30.11R
IOWA FALLS *     N/A     48  30  49 N5        30.10R
$$

IAZ007>011-017>019-026>030-037>042-050>054-066-270500-
   NORTHEAST IOWA

CITY           SKY/WX    TMP DP  RH WIND       PRES   REMARKS
CEDAR RAPIDS   CLEAR     47  32  56 N3        30.06R
CHARLES CITY * CLEAR     46  28  49 N7        30.10R
CLINTON *      CLEAR     43  30  61 NW5       30.08R
DECORAH *      CLEAR     48  25  40 CALM      30.07S
DUBUQUE        CLEAR     41  30  65 CALM      30.05S
MONTICELLO *   CLEAR     41  37  87 CALM      30.06S
OELWEIN *      CLEAR     41  32  70 NW7       30.08S
WATERLOO       CLEAR     40  31  70 NW5       30.08R
$$

IAZ064-065-067-068-078-270500-
   EAST CENTRAL IOWA

CITY           SKY/WX    TMP DP  RH WIND       PRES   REMARKS
DAVENPORT      CLEAR     43  33  68 CALM      30.06R
IOWA CITY      CLEAR     43  35  73 CALM      30.08R
MT. PLEASANT * CLEAR     45  36  70 CALM      30.07S
MUSCATINE *    CLEAR     45  37  76 CALM      30.07R
QUAD CITIES    CLEAR     42  36  79 CALM      30.05S
$$

IAZ062-063-075>077-085>089-095>099-270500-
   SOUTHEAST IOWA

CITY           SKY/WX    TMP DP  RH WIND       PRES   REMARKS
BURLINGTON     CLEAR     42  36  79 CALM      30.06R
FAIRFIELD *    CLEAR     45  34  65 CALM      30.07R
FORT MADISON *   N/A     48  34  57 CALM      30.07S
KEOKUK *       CLEAR     46  37  71 CALM      30.06R
OSKALOOSA *      N/A     46  34  61 CALM      30.07S
CENTERVILLE *  CLEAR     48  32  53 NE5       30.09R
OTTUMWA        CLEAR     45  34  65 CALM      30.07R
WASHINGTON *   CLEAR     48  34  57 NE3       30.07R
$$

ABBREVIATIONS USED IN REMARKS
   TC - TEMPERATURES IN CELSIUS
  WCI - WIND CHILL INDEX
   HX - HEAT INDEX
  VSB - VISIBILITY
$$



USA.gov is the U.S. government's official web portal to all federal, state and local government web resources and services.